Starlink 30615

operational
NORAD ID: 58092 Int'l Des: 2023-160 Owner: SPXS Country: US Constellation: starlink
LEOCIRCULAR

Starlink 30615について

説明を読み込み中...

リアルタイム位置

3D地球を読み込み中...

次回通過

高度履歴

Altitude vs Time

uPlot chart will show altitude changes over time

軌道要素

1 58092U 23160T 25261.12711895 -.00000114 00000-0 66542-5 0 9991
2 58092 43.0054 297.5970 0001555 274.8336 85.2329 15.02533862106966
Epoch: Sep 18, 2025 • Age: 8 hours

現在のステータス

高度 562.9 km
速度 7.59 km/s
衛星直下点 41.57°N, 161.36°W
打ち上げ日 Oct 18, 2023
運用期間 1.9 years
タイプ internet

技術仕様

分類 Payload
質量 730.00 kg
乾燥質量 700.00 kg
総質量 730.00 kg
長さ 0.30 m
直径 4.10 m
スパン 29.00 m
形状 Box + pan
製造者 SPXS
バスタイプ Starlink V2M
フェーズステータス In Orbit
所有者/国 SPXS/US

大規模コンステレーション

Loading constellations...